Location: Aytr�
(46.1357°N, 1.1145°W)
Time: 16:06:23
(UTC+00:00)

Cosmos 1703 Rocket - Pass Details

Date: 03 March 2021
Orbit: 604 x 634 km, 82.5° (Epoch: 17 April)

Event Time Altitude Azimuth Distance (km) Brightness Sun altitude
Rises 18:47:32 0° 358° (N) 2,913 7.1 -10.1°
Reaches altitude 10° 18:49:57 10° 8° (N) 1,996 6.1 -10.5°
Maximum altitude 18:53:59 34° 74° (ENE) 1,030 4.2 -11.2°
Drops below altitude 10° 18:57:56 10° 139° (SE) 1,965 5.7 -11.9°
Enters shadow 18:59:28 - 146° (SSE) 2,534 6.3 -12.2°
